FW5335 Weather Reports


time (UTC)temp
C
wind
direction
speed
KPH
gust
KPH
rain 1hr
cm
rain 24hr
cm
rain mn
cm
humidity
%
barometer
mb
20260506044519 10 68 6.4 12.9 0.00 0.00 0.00 79 1013.9
20260506043519 10 68 3.2 12.9 0.00 0.00 0.00 79 1013.9
20260506042523 10 68 4.8 9.7 0.00 0.00 0.00 79 1013.8
20260506041518 10 68 1.6 6.4 0.00 0.00 0.00 79 1013.7
20260506040519 10 68 3.2 6.4 0.00 0.00 0.00 79 1013.7
20260506035539 10 68 3.2 6.4 0.00 0.00 0.00 78 1013.6
20260506034518 10 23 3.2 8.0 0.00 0.00 0.00 78 1013.7
20260506033517 10 45 3.2 6.4 0.00 0.00 0.00 78 1013.8
20260506032528 10 23 3.2 6.4 0.00 0.00 0.00 78 1013.7
20260506031524 10 45 3.2 11.3 0.00 0.00 0.00 78 1013.7
20260506030521 10 23 3.2 8.0 0.00 0.00 0.00 78 1013.8
20260506025518 10 23 3.2 8.0 0.00 0.00 0.00 77 1013.8
20260506024525 10 23 1.6 6.4 0.00 0.00 0.00 77 1013.7
20260506023517 10 23 4.8 11.3 0.00 0.00 0.00 77 1013.6
20260506022517 10 23 3.2 6.4 0.00 0.00 0.00 77 1013.7
20260506021518 10 23 4.8 12.9 0.00 0.00 0.00 77 1013.7
20260506020533 10 23 4.8 11.3 0.00 0.00 0.00 77 1013.7
20260506015540 10 23 3.2 6.4 0.00 0.00 0.00 77 1013.7
20260506014518 10 0 3.2 6.4 0.00 0.00 0.00 76 1013.7
20260506013519 10 45 4.8 12.9 0.00 0.00 0.00 76 1013.8
20260506012517 10 0 4.8 11.3 0.00 0.00 0.00 76 1013.9
20260506011527 10 0 3.2 8.0 0.00 0.00 0.00 76 1013.9
20260506010541 10 315 1.6 6.4 0.00 0.00 0.00 76 1014.0
20260506005520 10 315 3.2 6.4 0.00 0.00 0.00 75 1014.2
20260506004523 10 23 3.2 6.4 0.00 0.00 0.00 76 1014.2
20260506003518 10 23 3.2 4.8 0.00 0.00 0.00 75 1014.2
20260506002518 10 338 3.2 9.7 0.00 0.00 0.00 75 1014.1
20260506001518 10 23 4.8 12.9 0.00 0.00 0.00 75 1014.2
20260506000518 10 23 1.6 4.8 0.00 0.00 0.00 75 1014.2
20260505235518 10 23 3.2 6.4 0.00 0.00 0.00 75 1014.1
20260505234518 10 315 1.6 6.4 0.00 0.00 0.00 75 1014.2
20260505233518 10 315 1.6 6.4 0.00 0.00 0.00 75 1014.4
20260505232518 10 23 1.6 4.8 0.00 0.00 0.00 74 1014.3
20260505231518 10 23 4.8 6.4 0.00 0.00 0.00 74 1014.4
20260505230517 10 0 6.4 9.7 0.00 0.00 0.00 74 1014.5
20260505225538 10 338 3.2 6.4 0.00 0.00 0.00 74 1014.6
20260505224545 11 0 3.2 6.4 0.00 0.00 0.00 74 1014.3
20260505223518 11 0 3.2 9.7 0.00 0.00 0.00 73 1014.4
20260505222547 11 23 4.8 8.0 0.00 0.00 0.00 73 1014.4
20260505221518 11 0 4.8 16.1 0.00 0.00 0.00 73 1014.4
20260505220518 11 45 3.2 8.0 0.00 0.00 0.00 72 1014.5
20260505215518 11 23 1.6 4.8 0.00 0.00 0.00 70 1014.5
20260505214518 11 23 3.2 8.0 0.00 0.00 0.00 70 1014.6
20260505213535 11 23 6.4 12.9 0.00 0.00 0.00 70 1014.5
20260505212518 11 23 8.0 16.1 0.00 0.00 0.00 69 1014.5
20260505211537 11 23 8.0 16.1 0.00 0.00 0.00 68 1014.5
20260505210523 11 23 4.8 14.5 0.00 0.00 0.00 68 1014.5
20260505205523 11 23 9.7 16.1 0.00 0.00 0.00 67 1014.1
20260505204538 12 23 9.7 17.7 0.00 0.00 0.00 67 1014.3
20260505203518 12 23 9.7 14.5 0.00 0.00 0.00 67 1014.3
20260505202519 12 23 6.4 12.9 0.00 0.00 0.00 67 1014.2
20260505201518 12 45 4.8 8.0 0.00 0.00 0.00 67 1014.2
20260505200538 12 23 6.4 14.5 0.00 0.00 0.00 67 1014.3
20260505195517 12 315 4.8 9.7 0.00 0.00 0.00 66 1014.3
20260505194538 12 23 3.2 8.0 0.00 0.00 0.00 65 1013.9
20260505193517 12 0 4.8 6.4 0.00 0.00 0.00 65 1014.0
20260505192518 12 338 6.4 12.9 0.00 0.00 0.00 64 1013.9
20260505191520 12 23 4.8 11.3 0.00 0.00 0.00 64 1014.0
20260505190523 12 315 4.8 11.3 0.00 0.00 0.00 63 1013.9
20260505185520 13 315 4.8 9.7 0.00 0.00 0.00 63 1013.5
20260505184519 13 338 6.4 14.5 0.00 0.00 0.00 62 1013.5
20260505183520 13 23 8.0 16.1 0.00 0.00 0.00 61 1013.6
20260505182520 13 0 11.3 19.3 0.00 0.00 0.00 61 1013.5
20260505181520 13 23 9.7 20.9 0.00 0.00 0.00 60 1013.6
20260505180518 13 23 6.4 16.1 0.00 0.00 0.00 62 1013.7
20260505175519 13 338 9.7 16.1 0.00 0.00 0.00 62 1013.6
20260505174519 13 338 9.7 20.9 0.00 0.00 0.00 62 1013.7
20260505173615 13 23 12.9 27.4 0.00 0.00 0.00 61 1013.7
20260505172520 14 23 9.7 17.7 0.00 0.00 0.00 60 1013.5
20260505171520 14 23 11.3 19.3 0.00 0.00 0.00 59 1013.6
20260505170520 14 23 8.0 20.9 0.00 0.00 0.00 60 1013.9
20260505165519 14 338 8.0 16.1 0.00 0.00 0.00 58 1013.9
20260505164605 15 338 9.7 17.7 0.00 0.00 0.00 57 1013.8
20260505163539 15 338 9.7 17.7 0.00 0.00 0.00 57 1013.9
20260505162519 15 0 9.7 17.7 0.00 0.00 0.00 55 1013.8
20260505161525 15 0 12.9 24.1 0.00 0.00 0.00 53 1013.8
20260505160519 16 23 9.7 19.3 0.00 0.00 0.00 53 1013.9
20260505152519 16 0 12.9 22.5 0.00 0.00 0.00 53 1014.0
20260505151519 16 0 11.3 20.9 0.00 0.00 0.00 53 1014.0
20260505150519 16 0 11.3 20.9 0.00 0.00 0.00 56 1014.0
20260505123519 17 23 11.3 20.9 0.00 0.00 0.00 53 1014.8
20260505122519 17 0 12.9 22.5 0.00 0.00 0.00 50 1014.9
20260505121519 17 23 4.8 16.1 0.00 0.00 0.00 57 1014.8
20260505120539 17 0 8.0 17.7 0.00 0.00 0.00 52 1015.0
20260505115521 16 0 9.7 19.3 0.00 0.00 0.00 53 1015.0
20260505114524 17 0 12.9 22.5 0.00 0.00 0.00 54 1015.0
20260505113519 17 0 8.0 17.7 0.00 0.00 0.00 60 1015.1
20260505112519 16 0 9.7 22.5 0.00 0.00 0.00 59 1015.1
20260505111519 17 0 8.0 19.3 0.00 0.00 0.00 57 1015.4
20260505110520 17 0 11.3 20.9 0.00 0.00 0.00 57 1015.4
20260505101519 15 0 9.7 22.5 0.00 0.00 0.00 58 1015.4
20260505100520 16 68 8.0 16.1 0.00 0.00 0.00 58 1015.4
20260505095518 15 45 9.7 22.5 0.00 0.00 0.00 60 1015.4
20260505094519 15 338 8.0 17.7 0.00 0.00 0.00 62 1015.5
20260505093619 15 23 12.9 24.1 0.00 0.00 0.00 61 1015.4
20260505092524 15 0 11.3 19.3 0.00 0.00 0.00 59 1015.4
20260505091519 16 45 9.7 24.1 0.00 0.00 0.00 63 1015.4
20260505090519 15 45 6.4 16.1 0.00 0.00 0.00 63 1015.4
20260505085519 15 0 9.7 19.3 0.00 0.00 0.00 63 1015.4
20260505084519 14 0 11.3 24.1 0.00 0.00 0.00 65 1015.3
20260505083519 13 0 11.3 24.1 0.00 0.00 0.00 68 1015.1
20260505082519 13 0 9.7 17.7 0.00 0.00 0.00 71 1015.2
20260505081518 12 45 8.0 14.5 0.00 0.00 0.00 74 1015.3
20260505080538 11 23 6.4 17.7 0.00 0.00 0.00 75 1015.2
20260505075518 11 45 3.2 9.7 0.00 0.00 0.00 79 1015.2
20260505074519 11 23 4.8 14.5 0.00 0.00 0.00 80 1015.3
20260505073616 11 338 4.8 9.7 0.00 0.00 0.00 81 1015.4
20260505072521 10 45 4.8 12.9 0.00 0.00 0.00 83 1015.2
20260505071521 10 68 4.8 12.9 0.00 0.00 0.00 84 1015.2
20260505070519 10 45 1.6 6.4 0.00 0.00 0.00 85 1015.2
20260505065518 10 23 6.4 11.3 0.00 0.00 0.00 86 1015.3
20260505064539 10 23 3.2 8.0 0.00 0.00 0.00 87 1015.3
20260505063519 10 23 3.2 12.9 0.00 0.00 0.00 88 1015.2
20260505062518 10 23 4.8 8.0 0.00 0.00 0.00 89 1015.2
20260505061518 10 23 3.2 4.8 0.00 0.00 0.00 89 1015.1
20260505060519 10 338 4.8 8.0 0.00 0.00 0.00 89 1015.1
20260505055539 9 0 4.8 8.0 0.00 0.00 0.00 90 1015.1
20260505054522 9 23 4.8 6.4 0.00 0.00 0.00 91 1015.0
20260505053518 9 45 1.6 4.8 0.00 0.00 0.00 91 1015.0
20260505052518 8 68 3.2 6.4 0.00 0.00 0.00 92 1014.9
20260505051518 8 68 1.6 6.4 0.00 0.00 0.00 91 1014.8
20260505050522 8 45 1.6 8.0 0.00 0.00 0.00 92 1014.9